Hourly Data Report for April 13, 2017

All times are specified in Local Standard Time (LST). Add 1 hour to adjust for Daylight Saving Time where and when it is observed.

TORONTO CITY
ONTARIO

43°40'00.000" N
79°24'00.000" W
112.50 m
6158355
71508
XTO

Download Data

Hourly Data (April 2017)
Hourly Data Report for April 13, 2017
TIME Temp Definition
°C
Dew Point Definition
°C
Rel Hum Definition
%
Wind Dir Definition
10's deg

Wind Spd Definition
km/h
Visibility Definition
km
Stn Press Definition
kPa
Hmdx Definition


Wind Chill Definition


Weather Definition


00:00 4.1 -1.9 65 LegendMM LegendMM   101.67     LegendNANA
01:00 3.7 -1.8 67 LegendMM LegendMM   101.65     LegendNANA
02:00 3.5 -1.8 69 LegendMM LegendMM   101.65     LegendNANA
03:00 3.3 -1.7 70 LegendMM LegendMM   101.69     LegendNANA
04:00 3.2 -1.6 71 LegendMM LegendMM   101.71     LegendNANA
05:00 3.3 -1.9 69 LegendMM LegendMM   101.71     LegendNANA
06:00 2.5 -2.0 72 LegendMM LegendMM   101.77     LegendNANA
07:00 4.1 -1.2 68 LegendMM LegendMM   101.83     LegendNANA
08:00 6.8 -1.0 57 LegendMM LegendMM   101.86     LegendNANA
09:00 8.4 -0.6 53 LegendMM LegendMM   101.94     LegendNANA
10:00 9.0 -1.3 48 LegendMM LegendMM   101.92     LegendNANA
11:00 9.1 -3.8 40 LegendMM LegendMM   101.90     LegendNANA
12:00 9.8 -3.9 38 LegendMM LegendMM   101.84     LegendNANA
13:00 10.7 -2.7 39 LegendMM LegendMM   101.78     LegendNANA
14:00 11.1 -3.7 35 LegendMM LegendMM   101.71     LegendNANA
15:00 11.4 -3.0 36 LegendMM LegendMM   101.63     LegendNANA
16:00 10.8 -3.0 38 LegendMM LegendMM   101.57     LegendNANA
17:00 10.5 -3.6 37 LegendMM LegendMM   101.52     LegendNANA
18:00 10.3 -4.0 36 LegendMM LegendMM   101.55     LegendNANA
19:00 9.9 -6.2 32 LegendMM LegendMM   101.50     LegendNANA
20:00 10.0 -5.4 33 LegendMM LegendMM   101.50     LegendNANA
21:00 9.4 -5.9 33 LegendMM LegendMM   101.54     LegendNANA
22:00 9.5 -5.4 34 LegendMM LegendMM   101.58     LegendNANA
23:00 9.6 -4.4 37 LegendMM LegendMM   101.58     LegendNANA

Notes on Data Quality.

Legend

  • E = Estimated
  • M = Missing
  • NA = Not Available
Date modified: